Snowfall_Accumulation
0.0 0.0 0.0 0.0 0.0 0.0 0.0 0.0 7.1 0.0 0.0 1.6 6.8 10.1 2.2 1.3 0.0 0.0 0.8 0.0 0.4 1.5 1.3 5.8 5.9 7.8 7.4 2.1 0.0 1.4 1.6 3.6 8.1 5.0 0.0 0.1 3.6 4.1 2.9 13.6 7.8 9.6 9.2 16.3
0.0 0.0 0.0 0.0 0.0 0.0 0.0 0.0 4.4 0.0 0.0 14.1 5.5 0.0 0.3 0.0 3.2 1.4 0.0 1.4 0.8 0.0 1.6 3.0 2.6 2.9 3.2 0.1 1.0 1.0 2.1 4.2 7.0 6.3 0.4 0.0 3.1 2.5 1.2 3.3 8.1 10.4 15.9 20.8
0.0 0.0 0.0 0.0 0.0 0.0 0.0 0.0 15.0 0.0 0.0 0.0 0.3 1.0 2.9 2.5 0.0 0.2 0.4 0.6 0.3 0.0 1.3 0.5 0.6 1.2 2.1 0.0 0.0 0.1 0.1 0.9 6.7 6.8 5.4 5.9 6.2 3.5 1.7 9.2 13.4 8.4 14.3 12.8
0.0 0.0 0.0 0.0 0.0 0.0 0.0 0.1 6.4 0.0 7.5 2.8 0.7 3.4 3.1 3.9 6.3 0.4 0.2 2.6 1.1 2.7 2.6 0.5 0.6 0.6 1.7 2.7 3.1 3.2 2.5 3.6 0.2 2.7 1.1 0.8 7.1 6.1 5.8 11.1 5.3 11.2 7.8 7.6
0.0 0.0 0.0 0.0 0.0 0.0 0.0 2.9 3.0 0.0 0.0 0.0 0.0 0.1 3.4 4.7 1.0 1.4 0.6 1.1 0.2 1.2 4.6 3.0 2.2 1.4 1.5 2.6 1.9 4.7 3.3 5.0 0.8 4.1 0.0 3.6 5.8 1.7 3.1 3.3 2.5 5.6 2.0 5.6
0.0 0.0 0.0 0.0 0.0 0.0 0.6 0.0 0.0 1.1 0.0 0.0 0.0 1.1 1.2 0.1 0.5 0.0 0.5 1.0 1.1 0.2 0.2 1.4 1.5 1.0 0.5 1.8 3.2 1.7 2.3 2.8 4.0 8.6 1.4 3.0 5.3 3.1 0.5 1.9 2.4 2.8 2.7 2.8
0.0 0.0 0.0 0.0 0.0 0.0 0.0 0.0 1.4 3.6 1.1 0.2 0.4 1.0 0.2 0.1 0.2 1.0 0.0 0.0 0.3 0.0 0.0 0.0 0.0 0.0 0.0 0.0 0.1 0.2 1.7 2.1 3.5 7.2 2.0 7.2 1.4 0.5 0.2 0.8 2.4 1.4 1.0 0.5
0.0 0.0 0.0 0.0 0.0 0.0 0.0 0.0 2.3 2.1 2.4 0.3 0.1 0.4 0.4 0.2 0.0 0.3 0.1 0.0 0.0 0.0 0.0 1.0 1.1 0.5 0.3 0.1 0.0 0.3 0.0 0.8 6.3 6.3 4.9 1.4 2.0 1.6 1.2 1.0 1.0 0.8 0.6 0.2
0.0 0.0 0.0 0.0 0.0 0.0 0.0 0.0 0.0 2.5 5.0 0.0 0.2 0.1 0.0 1.1 0.6 0.4 0.1 0.0 0.0 0.0 0.3 3.5 3.9 2.3 0.1 0.3 0.1 0.0 0.0 0.1 3.8 4.1 5.3 1.8 0.6 0.7 1.3 1.9 2.8 1.4 0.6 0.2
0.0 0.0 0.0 0.0 0.0 0.0 0.0 0.0 0.0 3.1 6.6 0.1 0.9 0.3 2.1 0.8 0.9 1.5 0.0 0.0 0.0 0.0 2.2 3.2 1.5 1.0 0.7 0.8 0.3 0.2 0.7 3.0 5.8 4.1 5.8 1.0 0.7 0.1 0.2 3.1 2.6 0.7 0.8 1.0
0.0 0.0 0.0 0.0 0.0 0.0 0.0 0.0 0.0 4.7 5.5 1.1 0.3 1.3 1.9 1.3 1.5 1.3 0.7 0.4 0.8 0.4 5.7 4.7 2.3 2.9 0.8 0.8 0.8 0.4 0.3 2.2 3.1 4.5 6.7 6.7 1.6 0.0 0.5 2.2 0.4 0.3 0.2 0.3
0.0 0.0 0.0 0.0 0.0 0.0 0.0 0.9 0.0 0.0 5.6 0.7 0.0 0.0 0.0 0.0 0.0 1.6 1.1 1.0 1.5 2.8 4.3 3.9 2.9 1.2 1.6 2.4 3.8 1.1 2.2 3.4 3.7 4.6 5.7 5.3 3.1 3.8 2.5 2.3 1.2 0.7 0.7 0.4
0.0 0.0 0.0 0.0 0.0 0.0 0.0 0.2 0.0 0.3 1.1 0.0 0.0 0.0 0.0 0.0 0.0 0.0 3.5 0.2 1.6 4.5 7.2 6.6 4.6 4.2 2.7 1.6 2.5 2.9 1.6 2.9 3.7 3.1 3.0 1.9 2.6 2.0 2.2 2.1 2.7 1.3 0.2 0.1
0.0 0.0 0.0 0.0 0.0 0.0 0.0 0.6 0.0 0.7 0.5 2.1 0.0 0.0 0.0 0.0 0.1 0.1 0.0 2.6 0.2 2.6 4.7 12.4 11.5 8.9 1.9 2.0 3.4 1.9 2.2 2.3 4.7 6.3 4.0 3.6 4.1 2.4 3.2 2.0 0.4 0.0 0.0 0.2
0.0 0.0 0.0 0.0 0.0 0.0 0.0 0.0 0.0 0.0 1.4 5.1 0.4 0.0 0.0 0.0 0.0 0.0 0.0 1.4 2.8 6.9 13.8 16.8 14.4 9.4 8.6 7.1 6.2 8.9 7.5 7.1 7.7 8.2 7.4 6.4 7.0 6.3 4.4 2.6 2.3 1.7 1.2 0.4
0.0 0.0 0.0 0.0 0.0 0.0 0.0 0.4 0.0 0.0 0.1 8.0 3.6 0.0 0.0 0.0 0.2 0.0 0.4 1.1 4.2 10.9 15.1 13.7 13.9 10.5 10.8 16.3 11.2 9.6 7.2 7.1 8.6 10.2 10.4 10.6 10.5 7.6 7.2 6.1 5.4 4.7 2.8 3.2
0.0 0.0 0.0 0.0 0.0 0.0 1.6 1.0 1.1 0.0 0.1 4.4 4.7 0.9 0.3 0.0 0.0 0.7 1.4 1.8 8.9 12.3 16.3 14.8 11.4 9.6 6.8 17.4 12.5 8.9 7.7 8.2 10.1 9.8 7.2 7.4 7.7 10.5 9.8 9.7 11.1 8.9 8.5 8.2
0.0 0.0 0.0 0.0 0.0 0.0 0.3 0.0 0.0 0.0 0.9 6.3 11.2 2.6 0.2 0.0 1.6 4.2 3.9 5.7 9.8 9.0 12.0 11.1 9.0 8.2 7.4 19.1 12.5 8.9 7.4 4.8 4.7 6.6 7.2 10.4 9.6 7.8 7.8 7.0 6.7 5.4 5.5 5.6
0.0 0.0 0.0 0.0 0.0 0.5 0.0 0.0 0.0 2.6 0.8 15.7 11.0 3.9 3.0 0.0 0.2 2.6 4.7 4.7 9.2 5.3 7.0 7.5 3.4 6.6 13.6 13.6 9.5 7.2 6.6 5.3 7.4 6.5 5.8 4.4 4.8 4.7 3.8 4.0 3.6 3.1 3.6 3.8
0.0 0.0 0.0 4.8 0.1 0.0 0.0 0.8 5.9 11.4 8.4 8.3 10.9 1.1 4.1 0.2 1.6 4.3 7.4 9.8 9.6 11.8 5.5 2.7 9.0 13.8 14.5 11.6 8.7 7.4 5.7 6.3 4.7 3.5 2.2 1.5 1.5 1.9 1.9 2.0 2.2 2.4 2.7 2.4
0.0 5.2 5.7 0.0 0.0 0.0 1.8 13.9 15.1 10.5 13.0 7.3 4.6 1.5 4.3 1.7 9.3 10.8 9.7 18.3 11.8 11.6 7.3 7.8 9.9 12.8 11.6 6.9 5.1 4.5 4.1 2.8 1.8 1.8 1.7 1.2 1.2 1.0 0.8 0.6 0.5 0.5 0.8 1.1
0.0 0.0 0.0 0.0 11.0 17.4 16.4 12.2 7.9 10.7 7.1 5.3 4.9 2.8 2.0 2.2 1.5 13.3 12.8 16.4 14.8 11.2 3.6 10.5 9.3 10.4 5.4 3.6 2.1 1.5 0.7 0.3 0.1 0.1 0.1 0.1 0.1 0.0 0.0 0.0 0.1 0.0 0.0 0.0
0.0 9.9 29.7 23.1 20.8 18.4 12.1 6.0 8.6 8.7 4.3 4.9 5.0 5.2 2.0 1.9 3.4 14.4 15.3 17.6 12.2 2.9 7.7 6.6 7.5 3.9 2.2 1.7 1.1 0.4 0.0 0.0 0.0 0.0 0.0 0.0 0.0 0.0 0.0 0.0 0.0 0.0 0.0 0.0
14.0 55.4 43.0 19.4 12.9 3.6 6.7 5.3 5.1 4.7 5.8 5.6 5.1 6.8 8.0 6.2 14.0 12.1 14.5 6.0 10.5 9.7 4.9 5.6 5.0 2.9 1.9 1.1 0.6 0.7 1.0 2.2 2.2 1.2 0.7 0.5 0.5 0.3 0.2 0.2 0.2 0.0 0.1 0.0
58.5 42.0 21.8 7.5 2.2 1.4 2.9 1.8 1.4 2.9 3.6 4.1 5.6 7.7 7.8 9.4 13.1 10.0 6.6 10.2 5.0 3.9 4.4 5.3 3.1 1.8 0.9 1.1 1.6 1.5 1.7 3.2 4.3 4.7 4.2 4.0 3.4 2.6 2.1 1.2 0.8 0.6 0.2 0.1
54.0 33.4 10.0 1.1 0.7 0.3 0.6 1.9 2.0 1.7 4.7 3.6 6.2 9.4 12.0 9.6 9.7 10.2 5.8 5.8 4.8 5.3 5.7 5.4 3.5 3.1 2.7 2.4 1.9 1.4 0.8 0.8 0.6 0.3 0.4 0.9 0.5 1.1 2.0 1.3 1.3 1.5 1.6 1.4
48.9 15.1 1.6 0.9 0.9 1.6 1.2 1.2 1.8 1.3 4.1 6.2 8.9 14.0 8.8 8.7 11.5 7.7 6.1 7.8 6.4 3.3 1.5 2.0 2.6 3.4 3.8 3.4 3.0 2.4 1.1 1.3 0.7 0.4 0.4 0.4 0.3 0.1 0.5 0.3 0.1 0.2 1.5 1.8